CAL112 ZUUU-ZULS

Flight info

Callsign CAL112
Flight time 2h 1m
Altitude 32100
Route MUMG9W/02L MUMGO B213 LXA
Aircraft B738/M-SDE1E2E3FGHIM3RWY/LB1

Departure

Time 2026-04-21 07:16
Airport Chengdu Shuangliu International Airport (ZUUU)

Arrival

Time 2026-04-21 09:18
Airport Lhasa Gonggar International Airport (ZULS)
Time Latitude Longitude Altitude Speed Heading
2026-04-21 06:47 30.58148 103.95457 1646 ft 0 kts 22°
2026-04-21 06:59 30.58146 103.95456 1646 ft 2 kts 22°
2026-04-21 06:59 30.58130 103.95449 1646 ft 3 kts 22°
2026-04-21 07:00 30.58112 103.95441 1646 ft 3 kts
2026-04-21 07:00 30.58094 103.95444 1646 ft 3 kts 327°
2026-04-21 07:00 30.58080 103.95459 1646 ft 3 kts 304°
2026-04-21 07:00 30.58072 103.95473 1646 ft 1 kts 291°
2026-04-21 07:01 30.58072 103.95474 1646 ft 1 kts 291°
2026-04-21 07:05 30.58075 103.95465 1646 ft 3 kts 291°
2026-04-21 07:05 30.58090 103.95420 1646 ft 9 kts 291°
2026-04-21 07:05 30.58115 103.95345 1646 ft 10 kts 290°
2026-04-21 07:05 30.58135 103.95276 1646 ft 9 kts 273°
2026-04-21 07:06 30.58107 103.95219 1646 ft 9 kts 202°
2026-04-21 07:06 30.58052 103.95195 1646 ft 8 kts 201°
2026-04-21 07:06 30.57999 103.95170 1646 ft 8 kts 202°
2026-04-21 07:06 30.57947 103.95146 1646 ft 8 kts 202°
2026-04-21 07:07 30.57897 103.95122 1646 ft 8 kts 202°
2026-04-21 07:07 30.57849 103.95100 1646 ft 7 kts 202°
2026-04-21 07:07 30.57803 103.95078 1646 ft 7 kts 202°
2026-04-21 07:07 30.57757 103.95056 1646 ft 7 kts 202°
2026-04-21 07:08 30.57713 103.95035 1646 ft 7 kts 202°
2026-04-21 07:08 30.57667 103.95014 1646 ft 8 kts 202°
2026-04-21 07:08 30.57609 103.94987 1646 ft 10 kts 202°
2026-04-21 07:08 30.57546 103.94958 1646 ft 10 kts 201°
2026-04-21 07:09 30.57485 103.94930 1646 ft 9 kts 202°
2026-04-21 07:09 30.57426 103.94901 1646 ft 9 kts 202°
2026-04-21 07:09 30.57368 103.94874 1646 ft 9 kts 202°
2026-04-21 07:09 30.57299 103.94841 1646 ft 12 kts 202°
2026-04-21 07:10 30.57223 103.94806 1646 ft 12 kts 202°
2026-04-21 07:10 30.57148 103.94770 1646 ft 11 kts 202°
2026-04-21 07:10 30.57076 103.94736 1646 ft 11 kts 202°
2026-04-21 07:10 30.57005 103.94704 1646 ft 11 kts 201°
2026-04-21 07:11 30.56934 103.94683 1646 ft 10 kts 192°
2026-04-21 07:11 30.56864 103.94665 1646 ft 10 kts 195°
2026-04-21 07:11 30.56799 103.94637 1646 ft 10 kts 202°
2026-04-21 07:11 30.56758 103.94617 1646 ft 10 kts 202°
2026-04-21 07:12 30.56696 103.94588 1646 ft 9 kts 202°
2026-04-21 07:12 30.56637 103.94559 1646 ft 9 kts 202°
2026-04-21 07:12 30.56579 103.94531 1646 ft 9 kts 202°
2026-04-21 07:12 30.56522 103.94504 1646 ft 9 kts 202°
2026-04-21 07:13 30.56467 103.94478 1646 ft 9 kts 201°
2026-04-21 07:13 30.56406 103.94450 1646 ft 10 kts 201°
2026-04-21 07:13 30.56336 103.94419 1646 ft 11 kts 201°
2026-04-21 07:13 30.56268 103.94387 1646 ft 10 kts 202°
2026-04-21 07:14 30.56237 103.94335 1646 ft 8 kts 272°
2026-04-21 07:14 30.56258 103.94275 1646 ft 8 kts 295°
2026-04-21 07:14 30.56280 103.94217 1646 ft 8 kts 291°
2026-04-21 07:14 30.56300 103.94157 1646 ft 8 kts 290°
2026-04-21 07:15 30.56320 103.94096 1646 ft 8 kts 294°
2026-04-21 07:15 30.56343 103.94038 1646 ft 8 kts 297°
2026-04-21 07:15 30.56385 103.94023 1646 ft 7 kts 19°
2026-04-21 07:15 30.56432 103.94045 1647 ft 10 kts 22°
2026-04-21 07:16 30.56671 103.94154 1648 ft 71 kts 21°
2026-04-21 07:16 30.57326 103.94457 1644 ft 132 kts 21°
2026-04-21 07:16 30.58325 103.94912 1827 ft 166 kts 22°
2026-04-21 07:16 30.59439 103.95463 2478 ft 173 kts 25°
2026-04-21 07:17 30.60525 103.95997 3254 ft 172 kts 24°
2026-04-21 07:17 30.61710 103.96541 3646 ft 197 kts 23°
2026-04-21 07:17 30.63078 103.97161 3868 ft 222 kts 22°
2026-04-21 07:17 30.64532 103.97827 4341 ft 232 kts 22°
2026-04-21 07:18 30.66103 103.98553 4615 ft 255 kts 23°
2026-04-21 07:18 30.67790 103.99353 5344 ft 260 kts 27°
2026-04-21 07:18 30.69130 104.00668 5738 ft 256 kts 54°
2026-04-21 07:18 30.70063 104.02457 6020 ft 263 kts 59°
2026-04-21 07:19 30.70944 104.04326 6854 ft 265 kts 59°
2026-04-21 07:19 30.71836 104.06227 7623 ft 271 kts 59°
2026-04-21 07:19 30.72753 104.08161 8373 ft 277 kts 59°
2026-04-21 07:19 30.73703 104.10150 9051 ft 286 kts 60°
2026-04-21 07:20 30.74685 104.12198 9760 ft 293 kts 59°
2026-04-21 07:20 30.75656 104.14304 10454 ft 298 kts 67°
2026-04-21 07:20 30.75976 104.16683 11128 ft 303 kts 97°
2026-04-21 07:20 30.75315 104.18985 11851 ft 304 kts 123°
2026-04-21 07:21 30.73868 104.20762 12538 ft 306 kts 148°
2026-04-21 07:21 30.71899 104.21678 13084 ft 309 kts 175°
2026-04-21 07:21 30.69765 104.21501 13670 ft 310 kts 202°
2026-04-21 07:21 30.67952 104.20218 14314 ft 306 kts 223°
2026-04-21 07:22 30.66528 104.18384 14941 ft 307 kts 234°
2026-04-21 07:22 30.65295 104.16338 15537 ft 311 kts 237°
2026-04-21 07:22 30.64092 104.14234 16153 ft 314 kts 237°
2026-04-21 07:22 30.62873 104.12114 16794 ft 317 kts 237°
2026-04-21 07:23 30.61623 104.09984 17473 ft 321 kts 237°
2026-04-21 07:23 30.60347 104.07843 18127 ft 325 kts 236°
2026-04-21 07:23 30.59048 104.05686 18721 ft 326 kts 236°
2026-04-21 07:23 30.57745 104.03537 19339 ft 326 kts 236°
2026-04-21 07:24 30.56432 104.01378 19937 ft 328 kts 236°
2026-04-21 07:24 30.55113 103.99213 20529 ft 329 kts 236°
2026-04-21 07:24 30.53786 103.97037 21106 ft 331 kts 236°
2026-04-21 07:24 30.52471 103.94839 21677 ft 332 kts 241°
2026-04-21 07:25 30.51683 103.92333 22213 ft 333 kts 262°
2026-04-21 07:25 30.51715 103.89679 22686 ft 340 kts 278°
2026-04-21 07:25 30.52493 103.87026 22745 ft 360 kts 298°
2026-04-21 07:25 30.53946 103.84585 22883 ft 375 kts 304°
2026-04-21 07:26 30.55569 103.82148 22980 ft 389 kts 305°
2026-04-21 07:26 30.57269 103.79641 23061 ft 401 kts 305°
2026-04-21 07:26 30.59011 103.77046 23160 ft 413 kts 304°
2026-04-21 07:26 30.60778 103.74372 23247 ft 423 kts 304°
2026-04-21 07:27 30.62572 103.71628 23446 ft 429 kts 304°
2026-04-21 07:27 30.64298 103.68818 23790 ft 427 kts 297°
2026-04-21 07:27 30.65367 103.65641 24217 ft 420 kts 283°
2026-04-21 07:27 30.66113 103.62377 24671 ft 418 kts 283°
2026-04-21 07:28 30.66868 103.59112 25012 ft 419 kts 283°
2026-04-21 07:28 30.67635 103.55843 25342 ft 420 kts 283°
2026-04-21 07:28 30.68414 103.52564 25671 ft 421 kts 284°
2026-04-21 07:28 30.69199 103.49292 26040 ft 421 kts 283°
2026-04-21 07:29 30.69992 103.46002 26307 ft 424 kts 284°
2026-04-21 07:29 30.70788 103.42702 26631 ft 425 kts 284°
2026-04-21 07:29 30.71584 103.39399 26970 ft 425 kts 284°
2026-04-21 07:29 30.72380 103.36098 27343 ft 424 kts 284°
2026-04-21 07:30 30.73174 103.32799 27778 ft 422 kts 284°
2026-04-21 07:30 30.73958 103.29536 28322 ft 417 kts 284°
2026-04-21 07:30 30.74734 103.26303 28841 ft 413 kts 284°
2026-04-21 07:30 30.75500 103.23102 29384 ft 409 kts 284°
2026-04-21 07:31 30.76258 103.19929 29880 ft 406 kts 284°
2026-04-21 07:31 30.77012 103.16777 30287 ft 403 kts 284°
2026-04-21 07:31 30.77758 103.13650 30738 ft 399 kts 284°
2026-04-21 07:31 30.78496 103.10555 31202 ft 395 kts 283°
2026-04-21 07:32 30.79226 103.07487 31620 ft 392 kts 283°
2026-04-21 07:32 30.79953 103.04433 31912 ft 391 kts 283°
2026-04-21 07:32 30.80594 102.98347 32001 ft 390 kts 266°
2026-04-21 07:33 30.80406 102.92067 31957 ft 391 kts 269°
2026-04-21 07:33 30.80316 102.85782 31911 ft 387 kts 269°
2026-04-21 07:34 30.80217 102.79533 31927 ft 387 kts 269°
2026-04-21 07:34 30.80105 102.73277 31873 ft 387 kts 268°
2026-04-21 07:35 30.79988 102.67036 31879 ft 385 kts 268°
2026-04-21 07:35 30.79870 102.60799 31836 ft 387 kts 268°
2026-04-21 07:36 30.79742 102.54520 31866 ft 390 kts 268°
2026-04-21 07:36 30.79611 102.48212 31865 ft 391 kts 268°
2026-04-21 07:37 30.79478 102.41901 31813 ft 390 kts 268°
2026-04-21 07:37 30.79341 102.35583 31776 ft 391 kts 268°
2026-04-21 07:38 30.79202 102.29264 31756 ft 391 kts 268°
2026-04-21 07:38 30.79060 102.22934 31749 ft 392 kts 268°
2026-04-21 07:39 30.78915 102.16610 31718 ft 392 kts 268°
2026-04-21 07:39 30.78767 102.10301 31712 ft 390 kts 266°
2026-04-21 07:40 30.78616 102.03996 31721 ft 389 kts 267°
2026-04-21 07:40 30.78467 101.97837 31705 ft 390 kts 268°
2026-04-21 07:41 30.78311 101.91568 31683 ft 387 kts 268°
2026-04-21 07:41 30.78608 101.85312 31694 ft 389 kts 274°
2026-04-21 07:42 30.79168 101.79082 31722 ft 392 kts 274°
2026-04-21 07:42 30.79721 101.72795 31711 ft 387 kts 274°
2026-04-21 07:43 30.80248 101.66566 31719 ft 388 kts 273°
2026-04-21 07:43 30.80828 101.60314 31751 ft 387 kts 274°
2026-04-21 07:44 30.81398 101.54093 31729 ft 388 kts 272°
2026-04-21 07:44 30.81826 101.47808 31739 ft 390 kts 272°
2026-04-21 07:45 30.82299 101.41509 31740 ft 391 kts 272°
2026-04-21 07:45 30.82824 101.35220 31766 ft 388 kts 273°
2026-04-21 07:46 30.83312 101.28957 31777 ft 389 kts 273°
2026-04-21 07:46 30.83797 101.22655 31749 ft 393 kts 273°
2026-04-21 07:47 30.84292 101.16319 31735 ft 394 kts 273°
2026-04-21 07:47 30.84790 101.09948 31727 ft 396 kts 273°
2026-04-21 07:48 30.85286 101.03574 31721 ft 396 kts 273°
2026-04-21 07:48 30.85767 100.97360 31750 ft 395 kts 273°
2026-04-21 07:49 30.86255 100.90994 31722 ft 395 kts 273°
2026-04-21 07:49 30.86738 100.84661 31717 ft 391 kts 273°
2026-04-21 07:50 30.87214 100.78368 31730 ft 389 kts 273°
2026-04-21 07:50 30.87684 100.72095 31735 ft 389 kts 273°
2026-04-21 07:51 30.88154 100.65816 31738 ft 391 kts 272°
2026-04-21 07:51 30.88622 100.59514 31748 ft 391 kts 272°
2026-04-21 07:52 30.89088 100.53205 31754 ft 391 kts 272°
2026-04-21 07:52 30.89551 100.46881 31745 ft 392 kts 272°
2026-04-21 07:53 30.90012 100.40557 31761 ft 393 kts 272°
2026-04-21 07:53 30.90470 100.34196 31738 ft 395 kts 272°
2026-04-21 07:54 30.90930 100.27804 31749 ft 397 kts 272°
2026-04-21 07:54 30.91387 100.21399 31737 ft 396 kts 272°
2026-04-21 07:55 30.91857 100.14995 31732 ft 399 kts 273°
2026-04-21 07:55 30.92297 100.08564 31746 ft 398 kts 272°
2026-04-21 07:56 30.92736 100.02209 31733 ft 394 kts 272°
2026-04-21 07:56 30.93187 99.96040 31773 ft 390 kts 273°
2026-04-21 07:57 30.93690 99.89794 31773 ft 389 kts 273°
2026-04-21 07:57 30.94194 99.83523 31776 ft 389 kts 273°
2026-04-21 07:58 30.94614 99.78216 31786 ft 398 kts 273°
2026-04-21 07:58 30.95118 99.71774 31781 ft 404 kts 273°
2026-04-21 07:59 30.95712 99.64168 31793 ft 403 kts 273°
2026-04-21 07:59 30.96130 99.58750 31777 ft 404 kts 273°
2026-04-21 08:00 30.96627 99.52242 31775 ft 403 kts 273°
2026-04-21 08:00 30.97121 99.45758 31794 ft 401 kts 273°
2026-04-21 08:01 30.97610 99.39290 31775 ft 400 kts 272°
2026-04-21 08:02 30.98336 99.29620 31788 ft 399 kts 273°
2026-04-21 08:02 30.98815 99.23179 31709 ft 399 kts 273°
2026-04-21 08:03 30.99291 99.16776 31743 ft 396 kts 273°
2026-04-21 08:03 30.99759 99.10387 31780 ft 396 kts 272°
2026-04-21 08:04 31.00223 99.03967 31750 ft 402 kts 272°
2026-04-21 08:04 31.00681 98.97606 31745 ft 402 kts 272°
2026-04-21 08:05 31.01158 98.91103 31763 ft 404 kts 272°
2026-04-21 08:05 31.01623 98.84548 31739 ft 407 kts 272°
2026-04-21 08:06 31.02088 98.77952 31729 ft 410 kts 272°
2026-04-21 08:06 31.02537 98.71412 31738 ft 401 kts 273°
2026-04-21 08:07 31.03008 98.64921 31746 ft 403 kts 272°
2026-04-21 08:07 31.03543 98.58397 31746 ft 406 kts 273°
2026-04-21 08:08 31.04105 98.51831 31742 ft 408 kts 273°
2026-04-21 08:08 31.04657 98.45236 31749 ft 409 kts 273°
2026-04-21 08:09 31.05199 98.38644 31741 ft 407 kts 273°
2026-04-21 08:09 31.05734 98.32067 31780 ft 408 kts 272°
2026-04-21 08:10 31.06270 98.25456 31768 ft 410 kts 272°
2026-04-21 08:10 31.06803 98.18852 31777 ft 408 kts 272°
2026-04-21 08:11 31.07330 98.12279 31794 ft 407 kts 272°
2026-04-21 08:11 31.07857 98.05702 31799 ft 408 kts 272°
2026-04-21 08:12 31.08374 97.99292 31800 ft 407 kts 272°
2026-04-21 08:12 31.08902 97.92728 31797 ft 407 kts 272°
2026-04-21 08:13 31.09424 97.86143 31806 ft 408 kts 272°
2026-04-21 08:13 31.09945 97.79546 31817 ft 409 kts 272°
2026-04-21 08:14 31.10462 97.72936 31811 ft 410 kts 272°
2026-04-21 08:14 31.10981 97.66306 31812 ft 410 kts 272°
2026-04-21 08:15 31.11491 97.59712 31806 ft 411 kts 272°
2026-04-21 08:15 31.11997 97.53067 31775 ft 411 kts 272°
2026-04-21 08:16 31.12505 97.46438 31810 ft 411 kts 272°
2026-04-21 08:16 31.13014 97.39782 31800 ft 411 kts 272°
2026-04-21 08:17 31.13516 97.33130 31786 ft 412 kts 272°
2026-04-21 08:17 31.14015 97.26471 31782 ft 411 kts 272°
2026-04-21 08:18 31.14466 97.19824 31789 ft 410 kts 268°
2026-04-21 08:18 31.13800 97.13252 31783 ft 407 kts 255°
2026-04-21 08:19 31.12394 97.06868 31785 ft 406 kts 255°
2026-04-21 08:19 31.10999 97.00484 31792 ft 406 kts 255°
2026-04-21 08:20 31.09647 96.94232 31837 ft 404 kts 255°
2026-04-21 08:20 31.08285 96.87910 31827 ft 405 kts 255°
2026-04-21 08:21 31.06902 96.81499 31862 ft 406 kts 255°
2026-04-21 08:21 31.05523 96.75125 31833 ft 404 kts 255°
2026-04-21 08:22 31.04145 96.68768 31848 ft 405 kts 255°
2026-04-21 08:22 31.02772 96.62453 31847 ft 404 kts 255°
2026-04-21 08:23 31.01389 96.56111 31859 ft 403 kts 255°
2026-04-21 08:23 31.00006 96.49781 31874 ft 403 kts 255°
2026-04-21 08:24 30.98624 96.43468 31865 ft 402 kts 255°
2026-04-21 08:24 30.97263 96.37142 31863 ft 402 kts 255°
2026-04-21 08:25 30.95931 96.30812 31869 ft 403 kts 256°
2026-04-21 08:25 30.94592 96.24469 31857 ft 402 kts 255°
2026-04-21 08:26 30.93248 96.18146 31859 ft 401 kts 255°
2026-04-21 08:26 30.91900 96.11810 31844 ft 405 kts 256°
2026-04-21 08:27 30.90553 96.05440 31786 ft 403 kts 257°
2026-04-21 08:27 30.89240 95.99242 31848 ft 401 kts 255°
2026-04-21 08:28 30.87863 95.92926 31820 ft 403 kts 256°
2026-04-21 08:28 30.86496 95.86593 31817 ft 404 kts 256°
2026-04-21 08:29 30.85129 95.80253 31844 ft 402 kts 256°
2026-04-21 08:29 30.83759 95.73920 31817 ft 404 kts 256°
2026-04-21 08:30 30.82424 95.67568 31839 ft 404 kts 256°
2026-04-21 08:30 30.81122 95.61224 31856 ft 401 kts 256°
2026-04-21 08:31 30.79830 95.54940 31852 ft 397 kts 256°
2026-04-21 08:31 30.78549 95.48742 31865 ft 397 kts 256°
2026-04-21 08:32 30.77245 95.42458 31866 ft 396 kts 256°
2026-04-21 08:32 30.75949 95.36233 31872 ft 396 kts 256°
2026-04-21 08:33 30.74658 95.30051 31880 ft 397 kts 256°
2026-04-21 08:33 30.73350 95.23805 31951 ft 399 kts 257°
2026-04-21 08:34 30.72027 95.17534 31966 ft 401 kts 256°
2026-04-21 08:34 30.70701 95.11223 31950 ft 403 kts 256°
2026-04-21 08:35 30.69366 95.04893 31947 ft 404 kts 256°
2026-04-21 08:35 30.68062 94.98699 31972 ft 406 kts 256°
2026-04-21 08:36 30.66713 94.92350 31976 ft 405 kts 256°
2026-04-21 08:36 30.65360 94.85995 32008 ft 406 kts 256°
2026-04-21 08:37 30.64002 94.79620 32018 ft 408 kts 256°
2026-04-21 08:37 30.62635 94.73227 32031 ft 408 kts 256°
2026-04-21 08:38 30.61265 94.66833 32013 ft 408 kts 256°
2026-04-21 08:38 30.59896 94.60462 31989 ft 406 kts 256°
2026-04-21 08:39 30.58536 94.54143 32011 ft 400 kts 256°
2026-04-21 08:39 30.57191 94.47913 32021 ft 397 kts 256°
2026-04-21 08:40 30.55844 94.41687 32041 ft 399 kts 256°
2026-04-21 08:40 30.54493 94.35454 32039 ft 397 kts 256°
2026-04-21 08:41 30.53139 94.29227 32023 ft 398 kts 256°
2026-04-21 08:41 30.51779 94.22998 32032 ft 399 kts 256°
2026-04-21 08:42 30.50429 94.16744 32022 ft 401 kts 256°
2026-04-21 08:42 30.49133 94.10478 32041 ft 403 kts 256°
2026-04-21 08:43 30.47818 94.04089 32013 ft 405 kts 256°
2026-04-21 08:43 30.46546 93.97981 32029 ft 406 kts 256°
2026-04-21 08:44 30.45217 93.91622 32011 ft 405 kts 256°
2026-04-21 08:44 30.43889 93.85273 32013 ft 405 kts 256°
2026-04-21 08:45 30.42557 93.78940 32015 ft 405 kts 255°
2026-04-21 08:45 30.41427 93.73570 32017 ft 413 kts 255°
2026-04-21 08:46 30.40060 93.67088 32010 ft 414 kts 255°
2026-04-21 08:46 30.38691 93.60621 32008 ft 413 kts 255°
2026-04-21 08:47 30.36926 93.54326 32007 ft 411 kts 249°
2026-04-21 08:47 30.34946 93.48126 31975 ft 410 kts 250°
2026-04-21 08:48 30.32984 93.41927 32016 ft 410 kts 251°
2026-04-21 08:48 30.31047 93.35707 31992 ft 412 kts 251°
2026-04-21 08:49 30.29125 93.29517 32030 ft 412 kts 251°
2026-04-21 08:49 30.27175 93.23244 31996 ft 415 kts 251°
2026-04-21 08:50 30.25215 93.16951 31997 ft 417 kts 251°
2026-04-21 08:50 30.23260 93.10694 31701 ft 408 kts 251°
2026-04-21 08:50 30.22307 93.07648 31371 ft 400 kts 251°
2026-04-21 08:51 30.21364 93.04639 30926 ft 396 kts 250°
2026-04-21 08:51 30.20429 93.01653 30517 ft 393 kts 250°
2026-04-21 08:51 30.19557 92.98868 30122 ft 392 kts 250°
2026-04-21 08:51 30.18629 92.95912 29597 ft 391 kts 250°
2026-04-21 08:52 30.17705 92.92969 29153 ft 388 kts 250°
2026-04-21 08:52 30.16787 92.90048 28710 ft 386 kts 250°
2026-04-21 08:52 30.15871 92.87137 28268 ft 384 kts 250°
2026-04-21 08:52 30.14967 92.84254 27867 ft 379 kts 250°
2026-04-21 08:53 30.14070 92.81409 27439 ft 377 kts 250°
2026-04-21 08:53 30.13171 92.78563 27021 ft 376 kts 251°
2026-04-21 08:53 30.12277 92.75729 26603 ft 374 kts 251°
2026-04-21 08:53 30.11388 92.72911 26167 ft 373 kts 251°
2026-04-21 08:54 30.10501 92.70102 25752 ft 372 kts 251°
2026-04-21 08:54 30.09616 92.67300 25347 ft 370 kts 251°
2026-04-21 08:54 30.08734 92.64512 24915 ft 370 kts 250°
2026-04-21 08:54 30.07846 92.61714 24359 ft 373 kts 251°
2026-04-21 08:55 30.06939 92.58853 23856 ft 374 kts 251°
2026-04-21 08:55 30.06055 92.56051 23687 ft 366 kts 252°
2026-04-21 08:55 30.05201 92.53318 23571 ft 356 kts 252°
2026-04-21 08:55 30.04369 92.50640 23542 ft 357 kts 252°
2026-04-21 08:56 30.03522 92.47904 23482 ft 366 kts 252°
2026-04-21 08:56 30.02659 92.45118 23446 ft 370 kts 252°
2026-04-21 08:56 30.01794 92.42336 23359 ft 367 kts 252°
2026-04-21 08:56 30.00932 92.39574 23292 ft 366 kts 252°
2026-04-21 08:57 30.00086 92.36856 23265 ft 364 kts 252°
2026-04-21 08:57 29.99230 92.34119 23199 ft 365 kts 251°
2026-04-21 08:57 29.98371 92.31370 23128 ft 363 kts 251°
2026-04-21 08:57 29.97514 92.28631 23067 ft 362 kts 252°
2026-04-21 08:58 29.96664 92.25915 22991 ft 359 kts 251°
2026-04-21 08:58 29.95807 92.23189 22978 ft 364 kts 251°
2026-04-21 08:58 29.94950 92.20450 22897 ft 360 kts 251°
2026-04-21 08:58 29.94105 92.17750 22864 ft 356 kts 252°
2026-04-21 08:59 29.93265 92.15069 22829 ft 358 kts 251°
2026-04-21 08:59 29.92410 92.12353 22748 ft 361 kts 251°
2026-04-21 08:59 29.91553 92.09641 22715 ft 361 kts 251°
2026-04-21 08:59 29.90694 92.06927 22660 ft 362 kts 251°
2026-04-21 09:00 29.89833 92.04208 22600 ft 360 kts 251°
2026-04-21 09:00 29.88987 92.01508 22567 ft 357 kts 252°
2026-04-21 09:00 29.88202 91.99005 22504 ft 353 kts 251°
2026-04-21 09:00 29.87358 91.96337 22444 ft 354 kts 251°
2026-04-21 09:01 29.86512 91.93664 22401 ft 360 kts 251°
2026-04-21 09:01 29.85648 91.90938 22340 ft 364 kts 251°
2026-04-21 09:01 29.84788 91.88206 22281 ft 362 kts 251°
2026-04-21 09:01 29.83922 91.85481 22238 ft 362 kts 251°
2026-04-21 09:02 29.83060 91.82761 22180 ft 361 kts 251°
2026-04-21 09:02 29.82205 91.80053 22126 ft 360 kts 251°
2026-04-21 09:02 29.81352 91.77329 22089 ft 361 kts 251°
2026-04-21 09:03 29.79661 91.71885 22030 ft 359 kts 251°
2026-04-21 09:03 29.78821 91.69192 21915 ft 357 kts 252°
2026-04-21 09:03 29.77982 91.66515 21900 ft 355 kts 251°
2026-04-21 09:03 29.77138 91.63822 21831 ft 359 kts 251°
2026-04-21 09:04 29.76285 91.61108 21804 ft 360 kts 251°
2026-04-21 09:04 29.75435 91.58393 21720 ft 360 kts 252°
2026-04-21 09:04 29.74591 91.55699 21697 ft 357 kts 251°
2026-04-21 09:04 29.73746 91.53017 21648 ft 354 kts 252°
2026-04-21 09:05 29.72907 91.50346 21566 ft 358 kts 251°
2026-04-21 09:05 29.72059 91.47639 21523 ft 363 kts 251°
2026-04-21 09:05 29.71205 91.44898 21475 ft 363 kts 251°
2026-04-21 09:05 29.70357 91.42174 21422 ft 362 kts 251°
2026-04-21 09:06 29.69517 91.39484 21376 ft 361 kts 251°
2026-04-21 09:06 29.68663 91.36751 21311 ft 356 kts 251°
2026-04-21 09:06 29.67847 91.34148 21247 ft 344 kts 251°
2026-04-21 09:06 29.67053 91.31591 21113 ft 337 kts 253°
2026-04-21 09:07 29.66383 91.28969 20875 ft 346 kts 257°
2026-04-21 09:07 29.65878 91.26242 20612 ft 350 kts 261°
2026-04-21 09:07 29.65544 91.23470 20347 ft 349 kts 265°
2026-04-21 09:07 29.65385 91.20695 20073 ft 346 kts 269°
2026-04-21 09:08 29.65384 91.17944 19812 ft 344 kts 272°
2026-04-21 09:08 29.65496 91.15197 19558 ft 343 kts 271°
2026-04-21 09:08 29.65360 91.12464 19286 ft 342 kts 262°
2026-04-21 09:08 29.64843 91.09799 19041 ft 342 kts 253°
2026-04-21 09:09 29.63955 91.07259 18759 ft 343 kts 244°
2026-04-21 09:09 29.62719 91.04916 18526 ft 344 kts 236°
2026-04-21 09:09 29.61157 91.02819 18266 ft 346 kts 226°
2026-04-21 09:09 29.59310 91.01040 17998 ft 348 kts 218°
2026-04-21 09:10 29.57351 90.99668 17692 ft 350 kts 209°
2026-04-21 09:10 29.55118 90.98548 17422 ft 349 kts 204°
2026-04-21 09:10 29.52882 90.97449 17125 ft 349 kts 206°
2026-04-21 09:10 29.50667 90.96335 16886 ft 346 kts 206°
2026-04-21 09:11 29.48470 90.95226 16608 ft 344 kts 206°
2026-04-21 09:11 29.46300 90.94131 16321 ft 338 kts 207°
2026-04-21 09:11 29.44187 90.93065 16043 ft 326 kts 207°
2026-04-21 09:11 29.42164 90.92037 15817 ft 306 kts 206°
2026-04-21 09:12 29.40331 90.91077 15717 ft 271 kts 212°
2026-04-21 09:12 29.38952 90.89853 15666 ft 235 kts 234°
2026-04-21 09:12 29.38136 90.88364 15639 ft 208 kts 248°
2026-04-21 09:12 29.37644 90.86887 15633 ft 194 kts 258°
2026-04-21 09:13 29.37410 90.85364 15607 ft 196 kts 267°
2026-04-21 09:13 29.37308 90.83784 15402 ft 196 kts 268°
2026-04-21 09:13 29.37180 90.82252 15203 ft 192 kts 265°
2026-04-21 09:13 29.37004 90.80754 14963 ft 188 kts 263°
2026-04-21 09:14 29.36770 90.79297 14716 ft 185 kts 262°
2026-04-21 09:14 29.36458 90.77878 14469 ft 185 kts 254°
2026-04-21 09:14 29.35846 90.76542 14241 ft 193 kts 233°
2026-04-21 09:14 29.34815 90.75593 14057 ft 190 kts 216°
2026-04-21 09:15 29.33587 90.75093 13818 ft 189 kts 187°
2026-04-21 09:15 29.32250 90.75326 13556 ft 200 kts 166°
2026-04-21 09:15 29.31006 90.76110 13220 ft 208 kts 143°
2026-04-21 09:15 29.30119 90.77410 13182 ft 211 kts 111°
2026-04-21 09:16 29.29861 90.79014 12912 ft 202 kts 84°
2026-04-21 09:16 29.29959 90.80601 12586 ft 197 kts 83°
2026-04-21 09:16 29.30020 90.82174 12327 ft 197 kts 84°
2026-04-21 09:16 29.30038 90.83706 12114 ft 188 kts 87°
2026-04-21 09:17 29.30048 90.85245 11856 ft 195 kts 86°
2026-04-21 09:17 29.30086 90.86792 11749 ft 192 kts 85°
2026-04-21 09:17 29.30109 90.88303 11581 ft 190 kts 86°
2026-04-21 09:17 29.30121 90.89794 11460 ft 178 kts 84°
2026-04-21 09:18 29.30146 90.90971 11460 ft 94 kts 89°
2026-04-21 09:18 29.30152 90.91324 11445 ft 20 kts 89°
2026-04-21 09:18 29.30154 90.91483 11444 ft 21 kts 91°
2026-04-21 09:18 29.30098 90.91641 11453 ft 22 kts 122°
2026-04-21 09:19 29.30019 90.91789 11445 ft 21 kts 113°
2026-04-21 09:19 29.30006 90.91956 11449 ft 21 kts 89°
2026-04-21 09:19 29.30008 90.92119 11449 ft 20 kts 89°
2026-04-21 09:19 29.30011 90.92278 11438 ft 20 kts 89°
2026-04-21 09:20 29.30013 90.92432 11439 ft 19 kts 89°
2026-04-21 09:20 29.30015 90.92580 11449 ft 18 kts 89°
2026-04-21 09:20 29.30017 90.92724 11449 ft 18 kts 89°
2026-04-21 09:20 29.30019 90.92862 11449 ft 17 kts 89°
2026-04-21 09:21 29.30020 90.92996 11448 ft 16 kts 89°
2026-04-21 09:21 29.30023 90.93125 11447 ft 16 kts 88°
2026-04-21 09:21 29.30012 90.93227 11447 ft 12 kts 116°
2026-04-21 09:21 29.29941 90.93263 11439 ft 12 kts 179°
2026-04-21 09:22 29.29861 90.93264 11438 ft 11 kts 179°
2026-04-21 09:22 29.29782 90.93268 11444 ft 11 kts 176°
2026-04-21 09:22 29.29706 90.93269 11436 ft 11 kts 181°
2026-04-21 09:22 29.29670 90.93210 11447 ft 10 kts 275°
2026-04-21 09:23 29.29671 90.93128 11445 ft 10 kts 268°
2026-04-21 09:23 29.29670 90.93048 11445 ft 10 kts 269°
2026-04-21 09:23 29.29669 90.92968 11445 ft 11 kts 269°
2026-04-21 09:23 29.29667 90.92859 11445 ft 16 kts 269°
2026-04-21 09:24 29.29665 90.92710 11446 ft 20 kts 269°
2026-04-21 09:24 29.29662 90.92552 11441 ft 20 kts 269°
2026-04-21 09:24 29.29660 90.92399 11443 ft 19 kts 269°
2026-04-21 09:24 29.29658 90.92251 11448 ft 18 kts 269°
2026-04-21 09:25 29.29656 90.92108 11448 ft 18 kts 272°
2026-04-21 09:25 29.29653 90.91969 11439 ft 17 kts 269°
2026-04-21 09:25 29.29651 90.91836 11449 ft 16 kts 269°
2026-04-21 09:25 29.29649 90.91708 11446 ft 16 kts 269°
2026-04-21 09:26 29.29647 90.91584 11450 ft 15 kts 269°
2026-04-21 09:26 29.29646 90.91466 11445 ft 15 kts 269°
2026-04-21 09:26 29.29644 90.91339 11455 ft 18 kts 269°
2026-04-21 09:26 29.29641 90.91186 11455 ft 20 kts 269°
2026-04-21 09:27 29.29638 90.91011 11457 ft 24 kts 269°
2026-04-21 09:27 29.29636 90.90812 11446 ft 24 kts 269°
2026-04-21 09:27 29.29633 90.90626 11458 ft 23 kts 269°
2026-04-21 09:27 29.29630 90.90447 11459 ft 22 kts 269°
2026-04-21 09:28 29.29627 90.90273 11448 ft 22 kts 269°
2026-04-21 09:28 29.29625 90.90106 11457 ft 18 kts 269°
2026-04-21 09:28 29.29621 90.90041 11443 ft 11 kts 252°
2026-04-21 09:28 29.29532 90.89997 11452 ft 11 kts 224°
2026-04-21 09:29 29.29524 90.89942 11457 ft 11 kts 270°
2026-04-21 09:29 29.29524 90.89858 11458 ft 10 kts 269°
2026-04-21 09:29 29.29522 90.89750 11450 ft 10 kts 269°
2026-04-21 09:29 29.29521 90.89698 11458 ft 10 kts 269°
2026-04-21 09:30 29.29518 90.89633 11451 ft 7 kts 257°
2026-04-21 09:30 29.29478 90.89614 11444 ft 7 kts 178°
2026-04-21 09:30 29.29431 90.89614 11445 ft 7 kts 180°
2026-04-21 09:30 29.29385 90.89614 11453 ft 7 kts 180°
2026-04-21 09:31 29.29373 90.89614 11446 ft 0 kts 180°